YBCS

Cairns Airport

Airport
ICAO code
YBCS
IATA Code
CNS
Summary
ICAO Region
APAC
ICAO Territory
Location

Cairns, Queensland

Serving
Cairns
Elevation
10 ft
Coordinates
16° 52' 36" S , 145° 45' 15" E
KCC
Metar
YBCS 142000Z AUTO 17012KT 9999 // SCT025 SCT039 BKN046 25/22 Q1014

Description

Cairns Airport is an international airport in Cairns, Queensland, Australia.

Climatology

Humid “subtropical” climate (Köppen climate classification Cfa) - characterized by hot, humid summers and cool winters. Significant amounts of precipitation occur in all seasons in most areas. Most summer rainfall occurs during thunderstorms and occasional tropical storms.

Airport map

Aerial View

SKYbrary Partners:

Safety knowledge contributed by: